ポンス-ブルックス彗星

12P/Pons-Brooks (2024)

English version
Home page
Updated on December 4, 2018

---------------------------------------------------------------------

・ プロフィール

・ 軌道要素

Perturbed ephemeris below is based on elements from QJ 27, 604. 

 Epoch = 2460440.50000 TT   T = 2460421.82800 TT
 Peri. =  198.98996         a =    17.1988963 AU
 Node  =  255.85632 J2000.0 e =     0.9546027
 Incl. =   74.19160         q =     0.7807832 AU

・ 星図

・ 光度変化

        m1 = 5.0 + 5 logΔ + 15.0 log r

---------------------------------------------------------------------

軌道要素はMinor Planet & Comet Ephemeris Serviceで計算したものです。
星図はステラナビゲータ Ver.10 (アストロアーツ) で作成したものです。
光度グラフはComet for Windowsで作成したものです。

---------------------------------------------------------------------

Copyright(C) Seiichi Yoshida (comet@aerith.net). All rights reserved.